アサシン彗星

C/2018 N2 ( ASASSN )

English version
Home page
Updated on March 26, 2020

---------------------------------------------------------------------

・ プロフィール

発見日 2018年7月7日
発見光度 16.4等
発見者 All-Sky Automated Survey for Supernovae (ASASSN) program

・ 写真集

・ 軌道要素

Epoch 2019 Nov. 13.0 TT = JDT 2458800.5
T 2019 Nov. 10.96133 TT                                 Rudenko
q   3.1246382            (2000.0)            P               Q
z  -0.0000498      Peri.   24.39594     +0.78558467     -0.45744754
 +/-0.0000003      Node    25.25926     +0.27011616     -0.35227825
e   1.0001557      Incl.   77.53196     +0.55668122     +0.81648134
From 3142 observations 2018 July 10-2020 Mar. 16, mean residual 0".4.

・ 星図

・ 光度変化

        m1 = 5.5 + 5 logΔ + 8.0 log r

---------------------------------------------------------------------

軌道要素はM.P.E.C. 2020-F67に掲載されたものです。
星図はステラナビゲータ Ver.10 (アストロアーツ) で作成したものです。
光度グラフはComet for Windowsで作成したものです。

---------------------------------------------------------------------

Copyright(C) Seiichi Yoshida (comet@aerith.net). All rights reserved.